ITY002 LIMF-LIRQ

Flight info

Callsign ITY002
Flight time 0h 44m
Altitude 29000
Route TOP DCT TESTO DCT GEN DCT BEROK Y138 GAPMI
Aircraft A319/M-SDE3FGHIRWY/LB1

Departure

Time 2026-04-28 19:48
Airport Turin Airport (LIMF)

Arrival

Time 2026-04-28 20:32
Airport Florence Airport, Peretola (LIRQ)
Time Latitude Longitude Altitude Speed Heading
2026-04-28 19:29 45.19171 7.64535 956 ft 0 kts 258°
2026-04-28 19:40 45.19174 7.64553 960 ft 2 kts 257°
2026-04-28 19:41 45.19175 7.64557 957 ft 0 kts 258°
2026-04-28 19:41 45.19178 7.64576 956 ft 2 kts 256°
2026-04-28 19:41 45.19182 7.64599 958 ft 2 kts 253°
2026-04-28 19:42 45.19187 7.64621 957 ft 2 kts 250°
2026-04-28 19:42 45.19193 7.64643 957 ft 2 kts 238°
2026-04-28 19:42 45.19204 7.64661 957 ft 2 kts 201°
2026-04-28 19:42 45.19212 7.64665 959 ft 1 kts 186°
2026-04-28 19:43 45.19215 7.64665 960 ft 0 kts 185°
2026-04-28 19:45 45.19199 7.64663 958 ft 7 kts 185°
2026-04-28 19:45 45.19111 7.64659 956 ft 18 kts 182°
2026-04-28 19:45 45.18957 7.64649 952 ft 27 kts 182°
2026-04-28 19:45 45.18746 7.64634 943 ft 25 kts 182°
2026-04-28 19:46 45.18648 7.64652 941 ft 0 kts 148°
2026-04-28 19:46 45.18631 7.64675 942 ft 10 kts 129°
2026-04-28 19:47 45.18616 7.64768 940 ft 10 kts 82°
2026-04-28 19:47 45.18654 7.64865 940 ft 16 kts 36°
2026-04-28 19:47 45.18886 7.64888 949 ft 66 kts
2026-04-28 19:47 45.19580 7.64931 965 ft 132 kts
2026-04-28 19:48 45.20605 7.64988 1372 ft 147 kts
2026-04-28 19:48 45.21613 7.65072 2076 ft 146 kts
2026-04-28 19:48 45.22635 7.65174 2712 ft 149 kts
2026-04-28 19:48 45.23734 7.65278 3113 ft 169 kts
2026-04-28 19:49 45.24987 7.65395 3479 ft 192 kts
2026-04-28 19:49 45.26406 7.65529 3960 ft 212 kts
2026-04-28 19:49 45.27801 7.66178 4823 ft 215 kts 34°
2026-04-28 19:49 45.28760 7.67798 5676 ft 219 kts 68°
2026-04-28 19:50 45.28637 7.71267 7173 ft 220 kts 121°
2026-04-28 19:50 45.27550 7.72773 8015 ft 222 kts 154°
2026-04-28 19:50 45.26049 7.73254 8898 ft 224 kts 178°
2026-04-28 19:51 45.24493 7.73477 9791 ft 226 kts 169°
2026-04-28 19:51 45.22987 7.74164 10607 ft 230 kts 156°
2026-04-28 19:51 45.21525 7.75101 11398 ft 233 kts 161°
2026-04-28 19:51 45.19958 7.75729 12189 ft 235 kts 167°
2026-04-28 19:52 45.18359 7.76309 12996 ft 239 kts 167°
2026-04-28 19:52 45.16733 7.76903 13760 ft 245 kts 167°
2026-04-28 19:52 45.15003 7.77548 13992 ft 272 kts 167°
2026-04-28 19:52 45.13059 7.78289 14055 ft 307 kts 166°
2026-04-28 19:53 45.10892 7.79125 14048 ft 339 kts 166°
2026-04-28 19:53 45.08571 7.80064 14053 ft 352 kts 162°
2026-04-28 19:53 45.06425 7.81795 14227 ft 364 kts 140°
2026-04-28 19:53 45.04810 7.84571 14992 ft 370 kts 121°
2026-04-28 19:54 45.03643 7.87834 15749 ft 374 kts 117°
2026-04-28 19:54 45.02509 7.91163 16474 ft 378 kts 117°
2026-04-28 19:54 45.01376 7.94540 17179 ft 383 kts 117°
2026-04-28 19:54 45.00230 7.97963 17872 ft 388 kts 117°
2026-04-28 19:55 44.99067 8.01427 18529 ft 393 kts 117°
2026-04-28 19:55 44.97887 8.04924 19133 ft 397 kts 117°
2026-04-28 19:55 44.96690 8.08465 19720 ft 402 kts 117°
2026-04-28 19:55 44.95477 8.12047 20344 ft 406 kts 117°
2026-04-28 19:56 44.94252 8.15660 20973 ft 410 kts 117°
2026-04-28 19:56 44.93032 8.19251 21592 ft 414 kts 117°
2026-04-28 19:56 44.91784 8.22927 22191 ft 417 kts 118°
2026-04-28 19:56 44.90522 8.26635 22798 ft 421 kts 118°
2026-04-28 19:57 44.89248 8.30376 23375 ft 425 kts 118°
2026-04-28 19:57 44.87958 8.34148 23875 ft 429 kts 118°
2026-04-28 19:57 44.86653 8.37946 24339 ft 432 kts 118°
2026-04-28 19:57 44.85337 8.41770 24794 ft 435 kts 118°
2026-04-28 19:58 44.84014 8.45617 24995 ft 436 kts 118°
2026-04-28 19:58 44.82693 8.49456 25046 ft 436 kts 118°
2026-04-28 19:58 44.81370 8.53300 25055 ft 436 kts 118°
2026-04-28 19:58 44.80048 8.57137 25054 ft 435 kts 118°
2026-04-28 19:59 44.78723 8.60969 25054 ft 435 kts 118°
2026-04-28 19:59 44.77400 8.64800 25054 ft 435 kts 118°
2026-04-28 19:59 44.76076 8.68629 25057 ft 435 kts 118°
2026-04-28 19:59 44.74748 8.72463 25057 ft 435 kts 118°
2026-04-28 20:00 44.73420 8.76288 25058 ft 436 kts 118°
2026-04-28 20:00 44.72086 8.80121 25062 ft 436 kts 118°
2026-04-28 20:00 44.70752 8.83954 25062 ft 436 kts 118°
2026-04-28 20:00 44.69419 8.87776 25063 ft 436 kts 118°
2026-04-28 20:01 44.68081 8.91607 25063 ft 436 kts 118°
2026-04-28 20:01 44.66761 8.95382 25058 ft 436 kts 118°
2026-04-28 20:01 44.65408 8.99255 25058 ft 436 kts 118°
2026-04-28 20:01 44.64085 9.03033 25060 ft 436 kts 118°
2026-04-28 20:02 44.62727 9.06902 25056 ft 436 kts 118°
2026-04-28 20:02 44.61388 9.10714 25057 ft 436 kts 118°
2026-04-28 20:02 44.60063 9.14470 25059 ft 434 kts 118°
2026-04-28 20:02 44.58722 9.18261 25059 ft 433 kts 118°
2026-04-28 20:03 44.57380 9.22045 25057 ft 433 kts 118°
2026-04-28 20:03 44.56041 9.25820 25047 ft 433 kts 118°
2026-04-28 20:03 44.54698 9.29608 25049 ft 433 kts 118°
2026-04-28 20:03 44.53360 9.33390 25049 ft 433 kts 118°
2026-04-28 20:04 44.52019 9.37173 25051 ft 433 kts 118°
2026-04-28 20:04 44.50679 9.40948 25042 ft 433 kts 118°
2026-04-28 20:04 44.49335 9.44728 24950 ft 434 kts 118°
2026-04-28 20:04 44.47990 9.48504 24722 ft 434 kts 118°
2026-04-28 20:05 44.46639 9.52285 24481 ft 434 kts 118°
2026-04-28 20:05 44.45289 9.56056 24243 ft 432 kts 118°
2026-04-28 20:05 44.43942 9.59808 24024 ft 431 kts 118°
2026-04-28 20:05 44.42597 9.63554 23790 ft 431 kts 118°
2026-04-28 20:06 44.41254 9.67286 23546 ft 429 kts 118°
2026-04-28 20:06 44.39917 9.71000 23268 ft 427 kts 118°
2026-04-28 20:06 44.38580 9.74704 23002 ft 425 kts 118°
2026-04-28 20:06 44.37249 9.78382 22728 ft 424 kts 118°
2026-04-28 20:07 44.35923 9.82057 22468 ft 423 kts 118°
2026-04-28 20:07 44.35050 9.84480 22293 ft 422 kts 118°
2026-04-28 20:07 44.33287 9.89364 21950 ft 420 kts 118°
2026-04-28 20:07 44.31971 9.93000 21687 ft 418 kts 118°
2026-04-28 20:08 44.30658 9.96615 21431 ft 417 kts 118°
2026-04-28 20:08 44.29235 10.00117 21178 ft 413 kts 128°
2026-04-28 20:08 44.27507 10.03301 20926 ft 411 kts 129°
2026-04-28 20:08 44.25770 10.06462 20672 ft 409 kts 130°
2026-04-28 20:09 44.24040 10.09605 20424 ft 408 kts 130°
2026-04-28 20:09 44.22312 10.12736 20178 ft 406 kts 130°
2026-04-28 20:09 44.20614 10.15805 19943 ft 405 kts 130°
2026-04-28 20:09 44.18897 10.18910 19700 ft 403 kts 129°
2026-04-28 20:10 44.17186 10.21996 19465 ft 402 kts 129°
2026-04-28 20:10 44.15479 10.25075 19225 ft 401 kts 129°
2026-04-28 20:10 44.13780 10.28139 18999 ft 399 kts 129°
2026-04-28 20:10 44.12090 10.31190 18769 ft 397 kts 129°
2026-04-28 20:11 44.10406 10.34224 18575 ft 396 kts 129°
2026-04-28 20:11 44.08726 10.37249 18327 ft 394 kts 129°
2026-04-28 20:11 44.07051 10.40263 18056 ft 393 kts 129°
2026-04-28 20:11 44.05385 10.43255 17798 ft 391 kts 129°
2026-04-28 20:12 44.03716 10.46227 17529 ft 388 kts 131°
2026-04-28 20:12 44.01859 10.48920 17267 ft 384 kts 137°
2026-04-28 20:12 43.99968 10.51524 17002 ft 382 kts 137°
2026-04-28 20:12 43.98714 10.53241 16831 ft 381 kts 137°
2026-04-28 20:13 43.96194 10.56677 16474 ft 378 kts 137°
2026-04-28 20:13 43.94318 10.59229 16211 ft 377 kts 137°
2026-04-28 20:13 43.92450 10.61768 15958 ft 376 kts 137°
2026-04-28 20:13 43.90589 10.64297 15705 ft 374 kts 137°
2026-04-28 20:14 43.88736 10.66815 15460 ft 372 kts 137°
2026-04-28 20:14 43.86894 10.69321 15203 ft 370 kts 137°
2026-04-28 20:14 43.85064 10.71814 14961 ft 368 kts 137°
2026-04-28 20:14 43.83244 10.74293 14713 ft 366 kts 137°
2026-04-28 20:15 43.81427 10.76761 14472 ft 365 kts 137°
2026-04-28 20:15 43.79622 10.79209 14219 ft 362 kts 137°
2026-04-28 20:15 43.77826 10.81643 13972 ft 361 kts 137°
2026-04-28 20:15 43.76035 10.84070 13721 ft 359 kts 137°
2026-04-28 20:16 43.74252 10.86478 13456 ft 357 kts 137°
2026-04-28 20:16 43.72478 10.88870 13197 ft 355 kts 137°
2026-04-28 20:16 43.70716 10.91250 12933 ft 353 kts 136°
2026-04-28 20:16 43.68986 10.93585 12674 ft 338 kts 137°
2026-04-28 20:17 43.67357 10.95783 12452 ft 318 kts 137°
2026-04-28 20:17 43.65815 10.97858 12197 ft 301 kts 137°
2026-04-28 20:17 43.64351 10.99827 11947 ft 287 kts 137°
2026-04-28 20:17 43.62956 11.01706 11696 ft 274 kts 137°
2026-04-28 20:18 43.61626 11.03496 11453 ft 260 kts 138°
2026-04-28 20:18 43.60691 11.04471 11278 ft 250 kts 154°
2026-04-28 20:18 43.58547 11.04984 10968 ft 232 kts 190°
2026-04-28 20:18 43.57086 11.04188 10735 ft 225 kts 215°
2026-04-28 20:19 43.55978 11.02686 10501 ft 223 kts 227°
2026-04-28 20:19 43.54950 11.01098 10260 ft 221 kts 227°
2026-04-28 20:19 43.53925 10.99530 10024 ft 220 kts 226°
2026-04-28 20:19 43.52916 10.97990 9884 ft 213 kts 226°
2026-04-28 20:20 43.51940 10.96496 9754 ft 208 kts 226°
2026-04-28 20:20 43.50979 10.95029 9614 ft 205 kts 226°
2026-04-28 20:20 43.50025 10.93574 9493 ft 204 kts 226°
2026-04-28 20:20 43.49185 10.92010 9351 ft 204 kts 245°
2026-04-28 20:21 43.48928 10.90094 9220 ft 207 kts 273°
2026-04-28 20:21 43.49363 10.88197 8967 ft 212 kts 301°
2026-04-28 20:21 43.50385 10.86720 8639 ft 216 kts 317°
2026-04-28 20:21 43.51522 10.85334 8263 ft 221 kts 317°
2026-04-28 20:22 43.52683 10.83907 7892 ft 226 kts 317°
2026-04-28 20:22 43.53987 10.82714 7498 ft 228 kts 340°
2026-04-28 20:22 43.55542 10.82574 7101 ft 225 kts 14°
2026-04-28 20:22 43.56897 10.83536 6755 ft 218 kts 45°
2026-04-28 20:23 43.57912 10.85047 6412 ft 212 kts 51°
2026-04-28 20:23 43.58877 10.86527 6104 ft 200 kts 51°
2026-04-28 20:23 43.59734 10.87831 6056 ft 167 kts 51°
2026-04-28 20:23 43.60459 10.88931 5985 ft 147 kts 52°
2026-04-28 20:24 43.61131 10.89963 5886 ft 144 kts 52°
2026-04-28 20:24 43.61795 10.90983 5666 ft 142 kts 52°
2026-04-28 20:24 43.62453 10.91995 5472 ft 141 kts 52°
2026-04-28 20:24 43.63107 10.93001 5277 ft 141 kts 52°
2026-04-28 20:25 43.63760 10.94006 5080 ft 141 kts 51°
2026-04-28 20:25 43.64413 10.95009 4888 ft 140 kts 51°
2026-04-28 20:25 43.65064 10.96009 4689 ft 140 kts 51°
2026-04-28 20:25 43.65713 10.97006 4492 ft 139 kts 51°
2026-04-28 20:26 43.66360 10.98000 4301 ft 139 kts 50°
2026-04-28 20:26 43.67005 10.98993 4118 ft 138 kts 50°
2026-04-28 20:26 43.67646 10.99980 4043 ft 138 kts 50°
2026-04-28 20:26 43.68288 11.00968 4018 ft 138 kts 50°
2026-04-28 20:27 43.68941 11.01958 3900 ft 140 kts 49°
2026-04-28 20:27 43.69604 11.02961 3525 ft 142 kts 49°
2026-04-28 20:27 43.70260 11.03963 3209 ft 139 kts 48°
2026-04-28 20:27 43.70902 11.04946 2979 ft 137 kts 47°
2026-04-28 20:28 43.71539 11.05922 2780 ft 137 kts 48°
2026-04-28 20:28 43.72173 11.06897 2585 ft 136 kts 48°
2026-04-28 20:28 43.72806 11.07870 2406 ft 136 kts 47°
2026-04-28 20:28 43.73428 11.08826 2225 ft 135 kts 47°
2026-04-28 20:29 43.74056 11.09793 2042 ft 135 kts 47°
2026-04-28 20:29 43.74678 11.10750 1864 ft 133 kts 47°
2026-04-28 20:29 43.75298 11.11705 1688 ft 133 kts 47°
2026-04-28 20:29 43.75916 11.12657 1505 ft 132 kts 47°
2026-04-28 20:30 43.76531 11.13605 1328 ft 132 kts 47°
2026-04-28 20:30 43.77143 11.14548 1151 ft 132 kts 47°
2026-04-28 20:30 43.77754 11.15489 984 ft 131 kts 47°
2026-04-28 20:30 43.78364 11.16431 811 ft 132 kts 47°
2026-04-28 20:31 43.78977 11.17376 638 ft 132 kts 47°
2026-04-28 20:31 43.79589 11.18317 486 ft 131 kts 47°
2026-04-28 20:31 43.80199 11.19261 274 ft 132 kts 48°
2026-04-28 20:31 43.80784 11.20172 135 ft 113 kts 48°
2026-04-28 20:32 43.81205 11.20821 141 ft 60 kts 48°
2026-04-28 20:32 43.81350 11.21045 146 ft 25 kts 48°
2026-04-28 20:32 43.81442 11.21186 148 ft 8 kts 48°
2026-04-28 20:32 43.81466 11.21234 148 ft 5 kts 65°
2026-04-28 20:33 43.81471 11.21255 148 ft 0 kts 72°
2026-04-28 20:33 43.81472 11.21259 148 ft 5 kts 72°
2026-04-28 20:33 43.81520 11.21324 148 ft 5 kts 298°
2026-04-28 20:33 43.81405 11.21145 148 ft 68 kts 229°
2026-04-28 20:34 43.81082 11.20631 137 ft 46 kts 229°
2026-04-28 20:34 43.80869 11.20298 133 ft 34 kts 228°
2026-04-28 20:34 43.80739 11.20100 134 ft 29 kts 225°
2026-04-28 20:34 43.80642 11.20023 132 ft 3 kts 194°
2026-04-28 20:35 43.80583 11.20002 132 ft 14 kts 195°
2026-04-28 20:35 43.80497 11.20032 133 ft 13 kts 137°
2026-04-28 20:35 43.80460 11.20124 134 ft 0 kts 136°